Theta_e
314 318 316 319 319 320 321 319 319 321 321 320 320 322 322 324 323 323 324 325 326 327 327 325 325 325 325 329 348 353 360 358 357 354 353 351 349 349 346 345 346 348 348 345
311 311 313 315 317 320 321 321 321 319 319 320 320 320 320 321 323 323 324 325 325 325 327 328 326 326 327 332 350 355 360 360 359 355 354 351 349 348 348 347 348 348 350 349
310 310 310 310 314 314 317 319 319 317 318 318 319 319 319 320 320 321 321 322 323 324 325 327 328 327 327 331 350 354 360 361 359 357 355 353 351 350 350 350 352 351 351 350
310 309 310 310 310 311 313 314 317 320 322 325 319 321 321 320 320 321 321 321 322 322 323 325 327 328 327 328 343 352 359 361 360 358 356 354 352 351 350 349 349 349 351 350
310 309 309 309 309 309 309 311 315 316 325 325 323 321 320 320 321 321 322 322 322 322 323 323 323 326 326 328 330 352 358 361 360 358 358 356 353 351 349 348 348 349 351 351
311 311 311 309 309 309 310 310 311 311 317 332 325 321 323 319 319 320 321 322 323 323 323 323 322 322 325 327 328 345 357 360 359 358 357 357 354 351 348 348 351 348 351 351
311 311 311 309 311 311 312 312 319 320 324 323 319 323 322 319 319 320 321 322 323 323 323 322 322 322 325 326 327 332 351 359 359 358 358 358 356 354 351 348 349 348 349 349
313 313 313 312 311 311 312 315 322 318 320 319 319 321 321 320 319 319 320 321 322 323 323 322 322 322 322 323 327 329 345 354 357 359 358 357 356 354 350 348 346 348 348 348
315 313 311 311 312 313 315 314 314 315 316 318 322 321 323 321 319 320 320 320 321 322 323 323 322 322 323 323 328 329 335 350 354 359 357 357 357 354 350 349 347 347 346 348
312 316 312 312 312 312 315 316 319 318 319 321 318 320 326 320 319 318 319 319 321 322 322 323 323 323 323 323 326 328 331 345 350 357 358 357 356 355 351 351 349 347 349 353
312 316 314 313 317 316 316 316 318 319 320 324 322 323 323 321 322 322 325 325 324 322 323 324 324 324 323 324 325 327 329 339 350 354 356 355 353 354 353 351 349 351 356 354
312 315 317 314 315 315 316 319 318 323 319 318 321 320 322 325 322 327 326 324 324 324 323 324 325 325 326 325 326 326 329 336 343 352 353 346 343 352 352 352 352 356 356 355
312 315 318 316 320 319 316 316 319 317 322 323 323 323 323 323 321 322 323 322 321 320 321 322 324 325 326 326 326 327 326 335 341 346 353 348 346 340 345 341 339 354 355 353
311 316 315 318 317 315 318 315 315 320 328 322 321 323 323 323 322 322 323 321 321 321 321 321 322 324 326 326 325 327 327 329 337 343 347 351 353 351 346 330 344 352 354 354
314 318 314 316 317 316 316 316 315 316 316 318 318 318 318 318 321 322 319 320 321 323 323 323 324 324 325 328 327 328 329 327 332 340 343 349 353 352 352 351 352 352 352 350
312 317 314 317 317 317 318 318 318 320 319 318 318 319 319 319 319 321 322 322 323 324 323 324 326 328 327 328 329 328 331 327 331 336 342 348 351 354 353 353 353 352 350 347
312 316 317 318 316 317 324 320 319 317 315 314 317 316 315 318 318 321 321 321 323 323 322 322 324 327 330 329 329 332 329 330 331 334 341 349 353 353 352 352 351 346 343 339
315 317 315 319 320 328 322 312 312 314 313 312 312 311 311 313 313 314 312 314 318 318 318 318 320 323 325 327 328 332 330 331 333 337 347 351 350 350 349 346 343 339 335 332
315 313 318 321 320 319 318 313 312 311 312 310 310 310 307 308 310 312 308 310 312 312 313 313 315 317 320 324 328 336 331 333 344 343 341 343 342 342 341 337 336 332 330 329
315 313 315 317 322 325 315 311 310 311 318 312 309 307 306 307 313 308 307 308 309 310 309 310 311 315 320 326 334 338 338 341 339 335 334 334 334 332 332 330 329 329 328 326
317 316 319 318 320 322 312 308 309 319 314 311 308 306 306 307 306 304 304 306 307 307 307 307 308 311 315 323 333 332 330 325 324 324 326 327 327 326 326 326 326 325 323 321
318 318 317 316 319 318 309 307 309 309 311 309 308 307 306 305 304 304 303 303 305 307 306 306 306 307 312 317 320 320 320 320 320 320 320 320 321 321 321 321 321 320 318 316
317 314 313 314 316 310 307 305 309 307 309 308 307 306 304 304 303 304 303 304 304 305 305 304 304 305 309 311 313 312 313 314 314 314 314 315 316 316 316 316 316 316 315 314
314 313 315 313 313 309 305 304 306 307 307 305 304 304 303 303 303 304 302 303 303 304 304 303 303 303 304 308 309 310 311 311 311 311 312 312 312 313 314 314 315 315 315 313
313 312 313 312 310 307 305 302 304 306 305 304 302 303 304 305 305 305 304 304 302 304 303 303 302 302 301 302 305 308 308 308 308 308 309 309 310 308 308 307 310 310 311 311
314 313 313 314 307 305 305 302 304 304 304 303 303 304 304 305 305 304 304 305 304 303 303 302 302 301 300 300 300 302 306 307 307 307 305 304 304 303 302 302 299 304 307 307
Wind_Speed
18 13 14 24 16 29 27 29 32 26 21 17 23 21 20 21 22 17 15 16 14 14 15 24 27 27 26 30 32 30 33 36 34 34 34 31 29 28 26 25 23 22 24 23
17 20 22 20 17 17 21 25 27 25 25 24 24 23 23 20 22 21 18 17 19 19 18 17 21 21 21 23 30 31 31 36 36 36 35 31 31 29 28 25 26 26 25 24
18 22 25 19 17 17 22 25 23 26 26 27 28 29 28 25 26 27 26 25 23 24 21 19 19 19 21 26 28 30 33 37 38 36 33 29 29 24 26 23 20 25 24 24
18 17 13 17 18 21 18 19 23 22 20 18 25 22 25 25 27 29 28 28 25 25 25 22 21 21 26 27 27 30 32 35 38 39 34 34 29 26 30 28 28 28 26 27
21 21 20 17 18 19 22 22 20 17 20 22 28 17 20 24 23 23 20 21 29 28 27 27 25 23 29 26 28 31 32 34 39 41 35 35 31 29 27 27 28 28 28 28
17 10 16 17 20 16 18 20 21 20 15 12 22 22 22 22 26 21 22 23 23 21 23 27 26 32 30 29 31 30 32 35 35 39 41 35 34 27 27 27 26 26 25 27
22 12 18 6 13 16 10 15 11 11 14 16 19 22 22 21 24 23 17 17 20 18 20 22 25 24 25 33 31 32 34 33 37 38 40 32 33 29 27 28 28 29 28 29
12 18 5 2 17 20 20 9 7 11 14 14 9 13 22 28 26 22 20 17 12 14 14 20 23 23 23 30 32 33 33 32 35 36 36 38 35 35 31 33 33 30 30 29
14 13 28 20 12 2 12 17 16 18 21 15 9 12 23 23 8 8 9 13 18 17 12 17 20 19 21 28 27 30 31 32 34 38 37 39 40 40 37 38 33 31 28 30
10 16 15 10 18 12 9 17 8 8 10 16 13 20 15 18 17 14 8 16 13 14 15 12 12 12 16 21 25 31 31 33 34 36 38 38 39 38 36 36 32 30 28 30
16 6 12 22 6 14 8 11 11 11 8 4 10 4 15 6 8 8 7 12 6 3 6 8 11 12 14 15 22 26 31 32 34 36 35 34 30 37 36 39 37 33 32 36
10 6 14 24 10 3 4 7 5 5 10 13 16 13 6 19 7 15 8 8 7 9 9 10 9 9 12 18 20 20 24 31 33 34 35 28 22 22 22 29 28 39 36 35
7 4 10 11 1 7 14 7 5 6 10 17 13 10 10 22 3 2 6 6 1 5 10 13 12 11 10 16 20 20 23 29 32 33 32 38 39 43 41 25 14 27 37 35
8 5 10 10 20 22 18 19 14 10 4 13 15 16 28 10 18 23 23 9 10 11 13 13 13 12 11 11 19 21 22 27 31 31 29 28 32 37 37 35 42 48 38 35
2 8 16 21 22 21 22 21 15 15 17 16 21 24 20 15 6 19 16 14 12 12 11 12 10 11 13 9 13 19 20 22 29 31 29 27 31 35 37 39 34 29 32 33
3 6 19 22 17 11 14 15 16 13 14 20 23 29 26 24 22 23 17 17 17 14 12 13 17 18 13 9 11 15 19 18 24 28 31 30 32 37 37 37 38 35 33 31
3 4 6 9 20 18 6 1 4 10 18 20 16 22 22 23 21 21 16 11 12 12 11 12 13 15 16 7 17 18 19 20 20 26 28 31 30 35 35 35 36 33 33 31
7 10 2 10 15 3 6 10 10 13 17 10 12 16 19 21 18 9 8 11 12 13 13 14 13 14 20 18 20 23 18 20 21 18 22 27 30 29 32 33 33 34 32 31
11 1 4 5 8 11 4 9 17 13 15 3 9 12 15 15 13 1 13 9 11 12 12 12 18 20 21 23 24 25 19 20 22 21 20 26 32 27 31 31 31 32 33 30
5 4 2 5 6 3 4 26 27 8 3 8 11 9 11 14 5 5 13 10 11 10 9 10 15 16 17 21 21 18 6 14 17 21 22 25 33 31 30 33 33 33 31 31
8 7 4 8 4 1 17 24 24 7 8 14 12 10 11 6 6 9 12 13 11 9 10 11 10 10 11 9 11 14 20 20 22 23 26 29 32 33 33 34 34 34 31 31
4 6 5 5 4 5 22 12 8 8 10 11 11 13 11 11 12 12 13 14 14 12 12 15 11 14 16 13 18 18 20 25 29 31 31 30 31 33 33 35 33 32 33 33
4 1 3 3 3 9 12 13 13 10 9 12 12 14 12 13 14 15 14 15 15 16 13 16 15 19 24 21 17 24 21 30 34 37 31 28 33 33 32 34 34 32 29 29
5 7 2 6 2 11 8 13 12 11 11 13 13 14 14 14 15 16 15 15 15 16 14 17 20 21 22 25 26 24 25 31 36 36 33 28 32 31 31 30 27 26 23 24
3 7 10 2 5 11 7 13 12 11 11 12 13 13 13 14 15 14 14 15 16 18 25 24 22 23 23 30 27 24 26 30 31 33 33 30 26 28 30 24 23 18 18 20
2 3 5 3 6 3 4 10 12 11 12 12 10 13 16 17 15 15 14 14 17 21 25 25 26 25 27 29 30 28 23 28 30 26 27 27 27 26 27 32 37 32 27 27
Wind_Direction
295 241 263 286 316 330 294 260 271 280 287 250 262 249 241 243 239 224 223 239 247 245 247 235 228 214 226 217 188 201 193 193 185 186 194 197 201 195 200 198 195 184 194 194
280 268 268 264 287 298 299 291 283 269 269 272 270 266 264 265 268 269 252 235 246 247 234 242 236 220 211 230 188 190 198 193 193 190 194 199 199 197 200 196 190 192 193 193
308 301 305 294 253 254 285 288 287 281 277 259 255 252 249 251 255 254 252 249 245 248 244 229 230 224 219 236 192 190 199 196 196 194 193 202 194 197 195 196 183 191 189 191
295 288 293 303 287 293 259 255 271 313 298 280 251 259 250 236 240 242 242 245 240 234 242 246 232 221 217 221 210 198 199 199 196 194 194 198 194 194 198 198 202 199 195 191
293 297 288 292 292 299 288 275 273 282 262 271 265 256 250 255 255 242 246 241 228 229 232 236 232 233 217 210 230 193 194 203 201 196 202 195 199 195 192 194 189 184 187 192
281 296 288 280 280 276 280 278 276 269 260 252 248 254 258 245 238 246 244 243 243 235 228 230 231 225 218 211 215 200 189 198 202 199 206 196 197 195 191 189 171 182 185 191
322 353 334 245 323 291 305 261 256 266 250 256 252 231 243 256 257 252 244 247 228 235 225 229 229 225 216 209 207 215 191 195 198 200 201 203 198 203 189 183 173 182 179 187
333 318 182 184 289 301 307 209 265 255 253 266 272 272 239 241 243 254 251 245 253 243 236 228 228 222 221 217 201 213 193 197 198 198 199 202 200 195 190 186 182 181 180 180
318 305 321 292 305 84 308 297 289 284 277 267 245 288 282 254 253 213 246 260 242 242 250 245 224 228 220 221 204 208 211 192 199 197 197 200 201 194 194 182 181 181 176 173
300 301 299 323 319 271 256 294 287 229 258 253 260 235 220 231 211 204 246 217 233 224 225 244 252 220 223 231 215 195 223 195 202 199 199 200 202 198 194 175 176 175 164 163
307 257 285 298 259 295 324 261 207 246 263 270 277 353 14 106 308 90 51 39 28 212 240 230 245 255 225 239 232 194 215 203 196 204 201 203 204 185 187 178 174 168 165 161
317 290 292 296 300 344 182 294 284 280 264 286 295 262 308 320 87 98 320 93 64 0 348 305 304 258 229 228 227 227 216 217 199 198 199 198 182 224 193 172 172 156 155 166
334 260 307 305 166 263 330 293 236 193 263 266 280 285 159 217 94 319 187 223 218 317 306 303 291 276 236 251 232 221 206 222 205 207 201 185 188 191 229 220 208 170 161 169
282 240 239 269 293 310 300 305 288 228 259 288 278 266 277 60 338 320 302 312 319 305 295 283 278 276 275 255 242 228 195 217 214 200 201 179 184 171 186 181 203 188 163 165
286 273 277 279 281 284 285 287 291 284 271 276 291 287 287 306 231 227 260 300 299 302 287 294 279 258 262 255 257 264 218 205 214 198 197 180 179 173 174 172 174 179 160 163
315 276 305 296 295 275 270 295 316 313 336 319 313 294 299 331 322 304 309 312 304 284 291 301 303 308 277 267 275 247 254 218 206 212 190 178 170 166 164 165 167 166 163 158
254 278 306 293 326 315 247 74 4 321 310 304 288 298 318 308 312 313 306 304 291 296 299 293 290 290 300 305 291 284 244 225 205 214 192 169 153 159 164 166 160 149 144 143
250 287 299 295 320 5 67 53 321 278 287 293 288 293 301 295 289 287 10 326 310 320 312 304 295 290 286 271 269 267 246 222 201 200 159 148 150 150 149 147 145 139 138 140
212 252 287 300 310 279 77 350 335 320 310 266 289 321 315 316 303 123 358 333 325 314 306 296 289 285 277 267 265 262 228 227 132 141 136 152 143 146 145 140 138 133 136 138
3 182 248 300 292 328 358 345 330 331 253 329 19 349 341 343 30 348 341 339 324 328 318 309 309 293 281 263 258 248 163 140 136 143 139 139 134 137 139 134 132 135 136 134
349 343 298 315 288 350 10 340 322 354 328 356 11 3 354 8 10 357 359 358 348 354 353 345 340 345 334 298 138 119 124 111 114 118 119 122 128 130 131 130 133 133 134 131
9 325 344 320 315 347 3 338 358 305 325 357 12 15 17 19 20 10 18 4 2 9 15 16 15 20 25 51 104 105 104 112 112 111 109 113 119 122 127 128 128 129 126 124
17 48 289 297 313 341 337 323 341 347 5 22 29 25 19 20 15 22 22 8 17 17 24 22 33 43 42 55 81 97 102 108 109 103 102 108 113 117 121 119 120 120 126 130
332 354 255 309 37 338 356 341 349 9 26 30 30 28 26 21 17 28 22 21 20 29 26 35 44 47 44 57 69 86 99 106 106 104 106 106 107 110 109 114 118 123 134 139
256 322 317 288 326 317 19 354 357 19 27 39 39 30 27 29 26 20 32 33 23 26 34 40 47 49 46 51 58 75 90 98 100 104 105 107 104 101 104 102 108 116 129 137
26 298 352 310 18 302 319 347 5 28 28 32 28 32 33 18 42 35 24 32 48 33 37 42 49 53 50 53 52 59 83 99 103 98 99 103 100 99 99 98 89 96 112 118